This demonstration page uses our WeatherBlox Daily Observations layout. Learn more.

Left ArrowRight Arrow

Hourly Observations for September 12, 2020

Temp ( °F °C ) Dew Point ( °F °C ) Humidity (%) Winds ( mph kmh ) Pressure ( in mb ) Visibility ( mi km ) Precip ( " mm )
12:59 am 00:59 Cloudy 76 24.4 70 21.1 82 82 ENE 10 17 30.13 1020 9 14 0.00 0.00
1:59 am 01:59 Cloudy 75 23.9 70 21.1 84 84 ENE 14 22 30.12 1020 7 11 0.01 0.25
2:59 am 02:59 Cloudy 75 23.9 69 20.6 82 82 ENE 17 28 30.12 1020 9 14 0.00 0.00
3:59 am 03:59 Cloudy 75 23.9 68 20 79 79 ENE 18 30 30.13 1020 9 14 0.00 0.00
4:59 am 04:59 Cloudy 75 23.9 66 18.9 74 74 ENE 16 26 30.14 1021 9 14 0.00 0.00
5:37 am 05:37 Cloudy 75 23.9 65 18.3 71 71 NE 16 26 30.14 1021 10 16 0.00 0.00
5:59 am 05:59 Cloudy 75 23.9 66 18.9 74 74 ENE 16 26 30.15 1021 10 16 0.00 0.00
6:24 am 06:24 Cloudy 74 23.3 66 18.9 76 76 ENE 17 28 30.15 1021 8 13 0.00 0.00
6:59 am 06:59 Cloudy 74 23.3 65 18.3 74 74 ENE 17 28 30.16 1021 9 14 0.00 0.00
7:35 am 07:35 Cloudy 74 23.3 64 17.8 71 71 ENE 18 30 30.17 1022 9 14 0.00 0.00
7:59 am 07:59 Cloudy 74 23.3 64 17.8 71 71 ENE 16 26 30.17 1022 10 16 0.00 0.00
8:28 am 08:28 Mostly Cloudy 74 23.3 63 17.2 69 69 ENE 17 28 30.18 1022 10 16 0.00 0.00
8:59 am 08:59 Mostly Cloudy 75 23.9 63 17.2 66 66 ENE 18 30 30.19 1022 10 16 0.00 0.00
9:59 am 09:59 Partly Cloudy 76 24.4 62 16.7 62 62 E 17 28 30.19 1023 10 16 0.00 0.00
10:59 am 10:59 Cloudy 77 25 63 17.2 62 62 ENE 16 26 30.21 1023 10 16 0.00 0.00
11:59 am 11:59 Mostly Cloudy 77 25 63 17.2 62 62 ENE 15 24 30.21 1023 10 16 0.00 0.00
12:59 pm 12:59 Mostly Cloudy 77 25 63 17.2 62 62 ENE 16 26 30.19 1022 10 16 0.00 0.00
1:30 pm 13:30 Mostly Cloudy 78 25.6 64 17.8 62 62 ENE 16 26 30.19 1022 10 16 0.00 0.00
1:59 pm 13:59 Cloudy 78 25.6 63 17.2 60 60 ENE 17 28 30.18 1022 10 16 0.00 0.00
2:59 pm 14:59 Mostly Cloudy 78 25.6 62 16.7 58 58 ENE 17 28 30.17 1022 10 16 0.00 0.00
3:59 pm 15:59 Mostly Cloudy 77 25 62 16.7 60 60 ENE 16 26 30.16 1021 10 16 0.00 0.00
4:59 pm 16:59 Mostly Cloudy 76 24.4 61 16.1 60 60 ENE 17 28 30.16 1021 10 16 0.00 0.00
5:59 pm 17:59 Mostly Cloudy 75 23.9 60 15.6 60 60 ENE 17 28 30.15 1021 10 16 0.00 0.00
6:59 pm 18:59 Mostly Cloudy 74 23.3 59 15 60 60 NE 14 22 30.15 1021 10 16 0.00 0.00
7:59 pm 19:59 Mostly Cloudy 73 22.8 61 16.1 66 66 ENE 13 20 30.15 1021 10 16 0.00 0.00
8:59 pm 20:59 Partly Cloudy 73 22.8 62 16.7 69 69 NE 10 17 30.16 1021 10 16 0.00 0.00
9:42 pm 21:42 Mostly Cloudy 73 22.8 63 17.2 71 71 ENE 13 20 30.16 1021 10 16 0.00 0.00
9:59 pm 21:59 Mostly Cloudy 74 23.3 63 17.2 69 69 NE 13 20 30.16 1021 10 16 0.00 0.00
10:59 pm 22:59 Mostly Cloudy 74 23.3 65 18.3 74 74 NE 10 17 30.16 1021 10 16 0.00 0.00
11:31 pm 23:31 Mostly Cloudy 74 23.3 65 18.3 74 74 ENE 8 13 30.16 1021 10 16 0.00 0.00
11:59 pm 23:59 Cloudy 75 23.9 66 18.9 74 74 ENE 10 17 30.15 1021 10 16 0.00 0.00

Powered by AerisWeather